User: anonymous   Login
Location: Vancouver
(49.2500°N, 123.1330°W)
Time: 23:47:24
(UTC-07:00)
Language:

ERS-2 - Orbit

View from above orbital plane
View from above orbital plane
View from above satellite
View from above satellite

Ground track
Ground track

The orbit data is extracted from the following two-line orbital elements,

1 23560U 95021A   17147.56931017 +.00001376 +00000-0 +66760-4 0  9991
2 23560 098.5550 137.1388 0004384 034.0641 326.0872 15.20611688172228
Epoch (UTC): 27 May 2017 13:39:48
Eccentricity: 0.0004384
inclination: 98.5550°
perigee height: 501 km
apogee height: 507 km
right ascension of ascending node: 137.1388°
argument of perigee: 34.0641°
revolutions per day: 15.20611688
mean anomaly at epoch: 326.0872°
orbit number at epoch: 17222

The dashed part of the orbit path shows where the satellite is in the earth's shadow,  

DLR